Angel Fire, NM

3:19 AM MDT on April 24, 2018 (GMT -0600)
Angel Fire

Weather History for KAXX - April, 2014

Change the Weather History Date:

Wednesday, April 2, 2014

  Actual Average (KSKX) Record (KSKX)
Temperature  
Mean Temperature 38 °F -  
Max Temperature 53 °F 54 °F 77 °F (2011)
Min Temperature 22 °F 24 °F 12 °F (2009)
Degree Days  
Heating Degree Days 28    
Moisture  
Dew Point 11 °F    
Average Humidity 29    
Maximum Humidity 63    
Minimum Humidity 17    
Precipitation  
Precipitation 0.00 in - - ()
Sea Level Pressure  
Sea Level Pressure 29.81 in    
Wind  
Wind Speed 10 mph (SW)    
Max Wind Speed 32 mph    
Max Gust Speed 41 mph    
Visibility 10 miles    
Events      
Averages and records for this station are not official NWS values.
T = Trace of Precipitation, MM = Missing Value Source: NWS Daily Summary

Daily Weather History Graph

Daily Weather History Graph

Search for Another Location

Airport or City:

Astronomy

Apr. 02, 2014 Rise Set
Actual Time 6:45 AM MDT 7:24 PM MDT
Civil Twilight 6:19 AM MDT 7:50 PM MDT
Nautical Twilight 5:49 AM MDT 8:20 PM MDT
Astronomical Twilight 5:17 AM MDT 8:52 PM MDT
Moon 8:36 AM MDT (4/2) 10:44 PM MDT (4/2)
Length of Visible Light 13h 30m
Length of Day
12h 38m
Waxing Crescent, 10% of the Moon is Illuminated
Apr 2
Waxing Crescent
Apr 7
First Quarter
Apr 15
Full
Apr 22
Last Quarter
Apr 29
New

Hourly Weather History & Observations

Time (MDT) Temp. Windchill Dew Point Humidity Pressure Visibility Wind Dir Wind Speed Gust Speed Precip Events Conditions
12:15 AM 41.2 °F 39.2 °F 7.7 °F 25% 29.90 in 10.0 mi West 3.5 mph - N/A   Clear
12:35 AM 43.2 °F 40.5 °F 7.0 °F 23% 29.90 in 10.0 mi SW 4.6 mph 16.1 mph N/A   Clear
12:55 AM 42.1 °F 36.6 °F 7.5 °F 24% 29.90 in 10.0 mi SW 9.2 mph - N/A   Clear
1:15 AM 41.2 °F 36.0 °F 7.7 °F 25% 29.91 in 10.0 mi South 8.1 mph 16.1 mph N/A   Clear
1:35 AM 34.3 °F 27.7 °F 9.1 °F 35% 29.90 in 10.0 mi South 8.1 mph - N/A   Clear
1:55 AM 35.2 °F 29.5 °F 8.6 °F 33% 29.91 in 10.0 mi South 6.9 mph - N/A   Clear
2:15 AM 32.9 °F 25.9 °F 9.9 °F 38% 29.90 in 10.0 mi SSE 8.1 mph - N/A   Clear
2:35 AM 33.1 °F 26.1 °F 9.7 °F 38% 29.89 in 10.0 mi SSE 8.1 mph - N/A   Clear
2:55 AM 32.2 °F 26.7 °F 9.9 °F 39% 29.88 in 10.0 mi SSE 5.8 mph - N/A   Clear
3:15 AM 30.7 °F 23.3 °F 10.8 °F 43% 29.88 in 10.0 mi South 8.1 mph - N/A   Clear
3:35 AM 27.7 °F 19.6 °F 11.8 °F 51% 29.87 in 10.0 mi South 8.1 mph - N/A   Clear
3:55 AM 29.7 °F 21.3 °F 11.1 °F 46% 29.87 in 10.0 mi SSE 9.2 mph - N/A   Clear
4:15 AM 26.2 °F - 11.8 °F 55% 29.87 in 10.0 mi Calm Calm - N/A   Clear
4:35 AM 24.8 °F - 11.7 °F 57% 29.86 in 10.0 mi Calm Calm - N/A   Clear
4:55 AM 22.3 °F - 11.3 °F 63% 29.85 in 10.0 mi Calm Calm - N/A   Clear
5:15 AM 25.7 °F - 11.3 °F 55% 29.85 in 10.0 mi Calm Calm - N/A   Clear
6:35 AM 28.6 °F 24.8 °F 10.2 °F 46% 29.84 in 10.0 mi ENE 3.5 mph - N/A   Clear
6:55 AM 29.1 °F - 10.2 °F 45% 29.84 in 10.0 mi Calm Calm - N/A   Clear
7:15 AM 32.2 °F - 9.9 °F 39% 29.85 in 10.0 mi Calm Calm - N/A   Clear
7:35 AM 37.4 °F 33.8 °F 8.2 °F 30% 29.85 in 10.0 mi WNW 4.6 mph - N/A   Clear
7:55 AM 39.4 °F - 8.1 °F 27% 29.85 in 10.0 mi Calm Calm - N/A   Clear
8:15 AM 40.5 °F 36.5 °F 7.9 °F 26% 29.84 in 10.0 mi NW 5.8 mph - N/A   Clear
8:35 AM 40.8 °F 35.0 °F 7.9 °F 26% 29.85 in 10.0 mi West 9.2 mph - N/A   Clear
8:55 AM 41.2 °F 35.5 °F 8.1 °F 26% 29.85 in 10.0 mi West 9.2 mph - N/A   Clear
9:15 AM 42.4 °F 37.0 °F 8.8 °F 25% 29.85 in 10.0 mi SW 9.2 mph 16.1 mph N/A   Clear
9:35 AM 42.8 °F 35.1 °F 8.6 °F 25% 29.84 in 10.0 mi West 16.1 mph 21.9 mph N/A   Clear
9:55 AM 43.7 °F 37.3 °F 9.3 °F 25% 29.84 in 10.0 mi West 12.7 mph - N/A   Clear
10:35 AM 46.9 °F - 10.6 °F 23% 29.84 in 10.0 mi SSW 19.6 mph 31.1 mph N/A   Clear
10:55 AM 47.8 °F - 11.1 °F 23% 29.84 in 10.0 mi WSW 18.4 mph 32.2 mph N/A   Clear
11:15 AM 48.4 °F - 10.6 °F 22% 29.83 in 10.0 mi SW 25.3 mph 29.9 mph N/A   Clear
11:55 AM 48.6 °F - 9.5 °F 21% 29.82 in 10.0 mi SW 18.4 mph 29.9 mph N/A   Clear
12:15 PM 50.7 °F - 10.0 °F 20% 29.81 in 10.0 mi SSW 19.6 mph 33.4 mph N/A   Clear
12:35 PM 50.2 °F - 10.0 °F 20% 29.81 in 10.0 mi WSW 21.9 mph 32.2 mph N/A   Clear
12:55 PM 50.2 °F - 10.4 °F 20% 29.81 in 10.0 mi WSW 18.4 mph 32.2 mph N/A   Clear
1:15 PM 50.7 °F - 11.1 °F 20% 29.79 in 10.0 mi West 19.6 mph 33.4 mph N/A   Clear
1:35 PM 52.0 °F - 10.9 °F 19% 29.78 in 10.0 mi SW 13.8 mph 27.6 mph N/A   Clear
1:55 PM 52.5 °F - 10.4 °F 19% 29.78 in 10.0 mi SSW 28.8 mph 33.4 mph N/A   Clear
2:15 PM 52.9 °F - 10.2 °F 18% 29.77 in 10.0 mi SSW 21.9 mph 32.2 mph N/A   Clear
2:35 PM 52.7 °F - 10.2 °F 18% 29.76 in 10.0 mi SW 17.3 mph 33.4 mph N/A   Clear
2:55 PM 52.5 °F - 9.9 °F 18% 29.76 in 10.0 mi SSW 17.3 mph 28.8 mph N/A   Clear
3:15 PM 53.1 °F - 8.8 °F 17% 29.75 in 10.0 mi SW 25.3 mph 40.3 mph N/A   Clear
3:35 PM 53.6 °F - 9.1 °F 17% 29.75 in 10.0 mi SW 32.2 mph 41.4 mph N/A   Clear
3:55 PM 52.3 °F - 9.0 °F 18% 29.75 in 10.0 mi SW 23.0 mph 38.0 mph N/A   Clear
4:15 PM 52.5 °F - 8.1 °F 17% 29.75 in 10.0 mi SW 24.2 mph 34.5 mph N/A   Clear
4:35 PM 51.3 °F - 9.3 °F 19% 29.75 in 10.0 mi SW 20.7 mph 32.2 mph N/A   Clear
4:55 PM 51.6 °F - 9.1 °F 18% 29.74 in 10.0 mi SW 19.6 mph 32.2 mph N/A   Clear
5:15 PM 52.0 °F - 9.3 °F 18% 29.74 in 10.0 mi WSW 16.1 mph 29.9 mph N/A   Clear
5:35 PM 51.1 °F - 9.1 °F 19% 29.74 in 10.0 mi WSW 20.7 mph 27.6 mph N/A   Clear
5:55 PM 51.1 °F - 8.8 °F 18% 29.74 in 10.0 mi SW 20.7 mph 29.9 mph N/A   Clear
6:15 PM 49.3 °F - 8.8 °F 19% 29.73 in 10.0 mi SW 19.6 mph 25.3 mph N/A   Clear
6:35 PM 48.2 °F - 9.1 °F 21% 29.73 in 10.0 mi SW 17.3 mph - N/A   Clear
6:55 PM 47.8 °F - 9.5 °F 21% 29.73 in 10.0 mi SSW 15.0 mph 19.6 mph N/A   Clear
7:15 PM 47.3 °F - 10.2 °F 22% 29.73 in 10.0 mi SW 15.0 mph 23.0 mph N/A   Clear
7:35 PM 46.8 °F - 12.4 °F 25% 29.73 in 10.0 mi SSW 15.0 mph 27.6 mph N/A   Mostly Cloudy
7:55 PM 45.7 °F 41.0 °F 13.8 °F 28% 29.73 in 10.0 mi SW 9.2 mph 15.0 mph N/A   Mostly Cloudy
8:15 PM 44.2 °F 38.4 °F 16.2 °F 32% 29.75 in 10.0 mi West 11.5 mph - N/A   Overcast
8:35 PM 43.9 °F 37.9 °F 16.5 °F 33% 29.75 in 10.0 mi West 11.5 mph 19.6 mph N/A   Overcast
8:55 PM 43.7 °F 39.1 °F 16.9 °F 34% 29.76 in 10.0 mi WSW 8.1 mph - N/A   Overcast
9:15 PM 42.8 °F 36.6 °F 17.1 °F 36% 29.77 in 10.0 mi West 11.5 mph 19.6 mph N/A   Overcast
9:35 PM 42.3 °F 35.5 °F 15.6 °F 34% 29.78 in 10.0 mi WSW 12.7 mph - N/A   Overcast
9:55 PM 41.0 °F 35.2 °F 14.2 °F 34% 29.79 in 10.0 mi SW 9.2 mph - N/A   Overcast
10:15 PM 40.5 °F 33.6 °F 13.1 °F 33% 29.80 in 10.0 mi WSW 11.5 mph 18.4 mph N/A   Overcast
10:35 PM 39.6 °F 33.5 °F 13.3 °F 34% 29.80 in 10.0 mi WSW 9.2 mph - N/A   Mostly Cloudy
11:15 PM 38.1 °F 31.2 °F 13.1 °F 36% 29.80 in 10.0 mi SSW 10.4 mph - N/A   Overcast
11:35 PM 37.8 °F 29.8 °F 13.8 °F 38% 29.81 in 10.0 mi SW 12.7 mph 19.6 mph N/A   Overcast
11:55 PM 37.0 °F 27.7 °F 13.1 °F 37% 29.81 in 10.0 mi WSW 16.1 mph 20.7 mph N/A   Overcast